Time,TemperatureF,DewpointF,PressureIn,WindDirection,WindDirectionDegrees,WindSpeedMPH,WindSpeedGustMPH,Humidity,HourlyPrecipIn,Conditions,Clouds,dailyrainin,SoftwareType,DateUTC
2013-03-11 00:01:00,53.5,43.0,30.16,ESE,121,0.0,0.0,67,0.00,,,0.00,weatherlink.com 1.10,2013-03-11 07:01:00,
2013-03-11 00:16:00,53.4,43.0,30.16,ESE,117,1.0,2.0,68,0.00,,,0.00,weatherlink.com 1.10,2013-03-11 07:16:00,
2013-03-11 01:01:00,51.6,44.0,30.16,ENE,60,0.0,3.0,74,0.00,,,0.00,weatherlink.com 1.10,2013-03-11 08:01:00,
2013-03-11 01:31:00,50.8,43.0,30.15,NE,53,0.0,2.0,75,0.00,,,0.00,weatherlink.com 1.10,2013-03-11 08:31:00,
2013-03-11 02:01:00,50.1,43.0,30.15,ENE,78,0.0,4.0,77,0.00,,,0.00,weatherlink.com 1.10,2013-03-11 09:01:00,
2013-03-11 02:16:00,50.1,43.0,30.15,East,80,0.0,2.0,77,0.00,,,0.00,weatherlink.com 1.10,2013-03-11 09:16:00,
2013-03-11 02:31:00,49.8,43.0,30.15,East,82,0.0,2.0,77,0.00,,,0.00,weatherlink.com 1.10,2013-03-11 09:31:00,
2013-03-11 02:46:00,49.5,43.0,30.14,East,82,0.0,1.0,77,0.00,,,0.00,weatherlink.com 1.10,2013-03-11 09:46:00,
2013-03-11 03:01:00,48.8,42.0,30.14,ENE,70,0.0,1.0,78,0.00,,,0.00,weatherlink.com 1.10,2013-03-11 10:01:00,
2013-03-11 03:16:00,48.3,42.0,30.13,ENE,67,1.0,2.0,79,0.00,,,0.00,weatherlink.com 1.10,2013-03-11 10:16:00,
2013-03-11 03:31:00,48.3,42.0,30.13,ENE,67,1.0,4.0,79,0.00,,,0.00,weatherlink.com 1.10,2013-03-11 10:31:00,
2013-03-11 03:46:00,48.5,42.0,30.12,ENE,74,0.0,5.0,78,0.00,,,0.00,weatherlink.com 1.10,2013-03-11 10:46:00,
2013-03-11 04:01:00,48.1,42.0,30.12,NE,53,1.0,4.0,78,0.00,,,0.00,weatherlink.com 1.10,2013-03-11 11:01:00,
2013-03-11 04:16:00,47.7,42.0,30.12,NE,48,3.0,5.0,79,0.00,,,0.00,weatherlink.com 1.10,2013-03-11 11:16:00,
2013-03-11 04:31:00,47.7,42.0,30.12,NE,52,0.0,5.0,79,0.00,,,0.00,weatherlink.com 1.10,2013-03-11 11:31:00,
2013-03-11 04:46:00,47.7,41.0,30.12,NNE,33,4.0,5.0,78,0.00,,,0.00,weatherlink.com 1.10,2013-03-11 11:46:00,
2013-03-11 05:01:00,48.0,41.0,30.11,ENE,57,2.0,6.0,78,0.00,,,0.00,weatherlink.com 1.10,2013-03-11 12:01:00,
2013-03-11 05:16:00,48.1,42.0,30.12,NE,50,0.0,5.0,78,0.00,,,0.00,weatherlink.com 1.10,2013-03-11 12:16:00,
2013-03-11 05:31:00,48.0,41.0,30.12,NE,52,0.0,5.0,77,0.00,,,0.00,weatherlink.com 1.10,2013-03-11 12:31:00,
2013-03-11 05:46:00,48.2,41.0,30.12,ENE,58,3.0,7.0,77,0.00,,,0.00,weatherlink.com 1.10,2013-03-11 12:46:00,
2013-03-11 06:01:00,47.3,41.0,30.12,NE,55,4.0,5.0,78,0.00,,,0.00,weatherlink.com 1.10,2013-03-11 13:01:00,
2013-03-11 06:16:00,47.2,40.0,30.12,ENE,59,2.0,4.0,77,0.00,,,0.00,weatherlink.com 1.10,2013-03-11 13:16:00,
2013-03-11 06:31:00,47.1,40.0,30.12,NE,53,3.0,4.0,77,0.00,,,0.00,weatherlink.com 1.10,2013-03-11 13:31:00,
2013-03-11 06:46:00,47.3,40.0,30.12,ENE,68,3.0,5.0,75,0.00,,,0.00,weatherlink.com 1.10,2013-03-11 13:46:00,
2013-03-11 07:01:00,47.7,40.0,30.12,NE,55,2.0,4.0,75,0.00,,,0.00,weatherlink.com 1.10,2013-03-11 14:01:00,
2013-03-11 07:16:00,46.8,40.0,30.12,NE,50,2.0,4.0,76,0.00,,,0.00,weatherlink.com 1.10,2013-03-11 14:16:00,
2013-03-11 07:46:00,47.9,40.0,30.12,NE,50,3.0,6.0,75,0.00,,,0.00,weatherlink.com 1.10,2013-03-11 14:46:00,
2013-03-11 08:01:00,49.4,41.0,30.13,ENE,57,2.0,5.0,73,0.00,,,0.00,weatherlink.com 1.10,2013-03-11 15:01:00,
2013-03-11 08:17:00,51.2,41.0,30.13,ENE,66,5.0,5.0,69,0.00,,,0.00,weatherlink.com 1.10,2013-03-11 15:17:00,
2013-03-11 08:31:00,53.5,41.0,30.14,NE,39,2.0,6.0,64,0.00,,,0.00,weatherlink.com 1.10,2013-03-11 15:31:00,
2013-03-11 08:46:00,54.8,42.0,30.15,NE,44,4.0,7.0,62,0.00,,,0.00,weatherlink.com 1.10,2013-03-11 15:46:00,
2013-03-11 09:01:00,56.6,42.0,30.15,NE,50,3.0,5.0,58,0.00,,,0.00,weatherlink.com 1.10,2013-03-11 16:01:00,
2013-03-11 09:16:00,58.9,43.0,30.14,ENE,61,2.0,5.0,55,0.00,,,0.00,weatherlink.com 1.10,2013-03-11 16:16:00,
2013-03-11 09:32:00,61.1,43.0,30.14,NE,35,3.0,5.0,51,0.00,,,0.00,weatherlink.com 1.10,2013-03-11 16:32:00,
2013-03-11 10:02:00,62.9,42.0,30.15,NNE,24,0.0,6.0,47,0.00,,,0.00,weatherlink.com 1.10,2013-03-11 17:02:00,
2013-03-11 10:32:00,61.2,47.0,30.14,NW,313,2.0,7.0,59,0.00,,,0.00,weatherlink.com 1.10,2013-03-11 17:32:00,
2013-03-11 10:47:00,60.3,47.0,30.14,WNW,294,5.0,9.0,61,0.00,,,0.00,weatherlink.com 1.10,2013-03-11 17:47:00,
2013-03-11 11:02:00,59.4,51.0,30.14,NW,317,7.0,11.0,73,0.00,,,0.00,weatherlink.com 1.10,2013-03-11 18:02:00,
2013-03-11 11:17:00,59.8,52.0,30.14,West,275,4.0,9.0,76,0.00,,,0.00,weatherlink.com 1.10,2013-03-11 18:17:00,
2013-03-11 11:32:00,59.5,53.0,30.14,WNW,302,3.0,13.0,79,0.00,,,0.00,weatherlink.com 1.10,2013-03-11 18:32:00,
2013-03-11 11:47:00,58.8,54.0,30.14,WNW,287,7.0,15.0,84,0.00,,,0.00,weatherlink.com 1.10,2013-03-11 18:47:00,
2013-03-11 12:02:00,58.9,54.0,30.13,West,271,8.0,13.0,85,0.00,,,0.00,weatherlink.com 1.10,2013-03-11 19:02:00,
2013-03-11 12:17:00,59.0,55.0,30.13,WNW,295,3.0,13.0,86,0.00,,,0.00,weatherlink.com 1.10,2013-03-11 19:17:00,
2013-03-11 12:32:00,59.8,56.0,30.12,WNW,300,2.0,9.0,86,0.00,,,0.00,weatherlink.com 1.10,2013-03-11 19:32:00,
2013-03-11 12:47:00,60.2,55.0,30.12,West,266,2.0,9.0,83,0.00,,,0.00,weatherlink.com 1.10,2013-03-11 19:47:00,
2013-03-11 13:02:00,60.1,55.0,30.11,WNW,302,4.0,9.0,83,0.00,,,0.00,weatherlink.com 1.10,2013-03-11 20:02:00,
2013-03-11 13:17:00,60.0,55.0,30.11,SW,222,4.0,9.0,83,0.00,,,0.00,weatherlink.com 1.10,2013-03-11 20:17:00,
2013-03-11 13:32:00,60.2,55.0,30.09,West,271,9.0,9.0,83,0.00,,,0.00,weatherlink.com 1.10,2013-03-11 20:32:00,
2013-03-11 13:47:00,60.4,55.0,30.09,WSW,243,3.0,9.0,82,0.00,,,0.00,weatherlink.com 1.10,2013-03-11 20:47:00,
2013-03-11 14:02:00,61.4,56.0,30.08,NNW,327,2.0,7.0,81,0.00,,,0.00,weatherlink.com 1.10,2013-03-11 21:02:00,
2013-03-11 14:17:00,61.2,55.0,30.07,NNW,339,3.0,8.0,80,0.00,,,0.00,weatherlink.com 1.10,2013-03-11 21:17:00,
2013-03-11 14:32:00,61.0,54.0,30.07,WNW,292,4.0,7.0,79,0.00,,,0.00,weatherlink.com 1.10,2013-03-11 21:32:00,
2013-03-11 14:47:00,61.1,55.0,30.07,WSW,253,3.0,7.0,81,0.00,,,0.00,weatherlink.com 1.10,2013-03-11 21:47:00,
2013-03-11 15:02:00,61.2,55.0,30.06,WNW,291,7.0,8.0,81,0.00,,,0.00,weatherlink.com 1.10,2013-03-11 22:02:00,
2013-03-11 15:17:00,61.1,56.0,30.06,NW,317,2.0,10.0,82,0.00,,,0.00,weatherlink.com 1.10,2013-03-11 22:17:00,
2013-03-11 15:32:00,60.7,55.0,30.06,NW,305,5.0,11.0,82,0.00,,,0.00,weatherlink.com 1.10,2013-03-11 22:32:00,
2013-03-11 15:47:00,60.7,55.0,30.05,WNW,298,5.0,12.0,82,0.00,,,0.00,weatherlink.com 1.10,2013-03-11 22:47:00,
2013-03-11 16:02:00,60.7,56.0,30.05,NNW,334,4.0,11.0,83,0.00,,,0.00,weatherlink.com 1.10,2013-03-11 23:02:00,
2013-03-11 16:17:00,60.0,55.0,30.05,West,275,6.0,11.0,84,0.00,,,0.00,weatherlink.com 1.10,2013-03-11 23:17:00,
2013-03-11 16:32:00,59.6,56.0,30.05,WNW,296,3.0,13.0,86,0.00,,,0.00,weatherlink.com 1.10,2013-03-11 23:32:00,
2013-03-11 16:47:00,59.7,55.0,30.04,WNW,297,4.0,11.0,85,0.00,,,0.00,weatherlink.com 1.10,2013-03-11 23:47:00,
2013-03-11 17:02:00,58.6,55.0,30.04,WNW,286,7.0,13.0,86,0.00,,,0.00,weatherlink.com 1.10,2013-03-12 00:02:00,
2013-03-11 17:17:00,58.1,54.0,30.03,West,267,10.0,12.0,87,0.00,,,0.00,weatherlink.com 1.10,2013-03-12 00:17:00,
2013-03-11 17:32:00,57.5,54.0,30.03,WNW,300,3.0,11.0,87,0.00,,,0.00,weatherlink.com 1.10,2013-03-12 00:32:00,
2013-03-11 17:47:00,57.5,54.0,30.03,West,272,7.0,10.0,87,0.00,,,0.00,weatherlink.com 1.10,2013-03-12 00:47:00,
2013-03-11 18:02:00,57.4,54.0,30.03,West,270,4.0,9.0,87,0.00,,,0.00,weatherlink.com 1.10,2013-03-12 01:02:00,
2013-03-11 18:17:00,57.2,54.0,30.03,WNW,303,7.0,9.0,88,0.00,,,0.00,weatherlink.com 1.10,2013-03-12 01:17:00,
2013-03-11 18:32:00,56.9,53.0,30.03,West,276,5.0,8.0,88,0.00,,,0.00,weatherlink.com 1.10,2013-03-12 01:32:00,
2013-03-11 18:47:00,56.6,54.0,30.03,NW,304,6.0,9.0,89,0.00,,,0.00,weatherlink.com 1.10,2013-03-12 01:47:00,
2013-03-11 19:03:00,56.1,53.0,30.04,WNW,293,6.0,9.0,90,0.00,,,0.00,weatherlink.com 1.10,2013-03-12 02:03:00,
2013-03-11 19:18:00,56.0,54.0,30.04,WNW,289,6.0,10.0,91,0.00,,,0.00,weatherlink.com 1.10,2013-03-12 02:18:00,
2013-03-11 19:33:00,56.0,54.0,30.04,WNW,291,3.0,9.0,91,0.00,,,0.00,weatherlink.com 1.10,2013-03-12 02:33:00,
2013-03-11 19:48:00,55.9,53.0,30.04,NW,306,3.0,8.0,91,0.00,,,0.00,weatherlink.com 1.10,2013-03-12 02:48:00,
2013-03-11 20:03:00,55.8,53.0,30.04,WNW,293,2.0,5.0,91,0.00,,,0.00,weatherlink.com 1.10,2013-03-12 03:03:00,
2013-03-11 20:18:00,55.7,53.0,30.05,WNW,296,0.0,6.0,91,0.00,,,0.00,weatherlink.com 1.10,2013-03-12 03:18:00,
2013-03-11 20:33:00,55.6,53.0,30.06,NW,320,1.0,7.0,92,0.00,,,0.00,weatherlink.com 1.10,2013-03-12 03:33:00,
2013-03-11 20:48:00,55.7,54.0,30.06,NW,323,0.0,5.0,92,0.00,,,0.00,weatherlink.com 1.10,2013-03-12 03:48:00,
2013-03-11 21:03:00,55.3,53.0,30.06,NNW,340,0.0,1.0,92,0.00,,,0.00,weatherlink.com 1.10,2013-03-12 04:03:00,
2013-03-11 21:18:00,55.0,53.0,30.06,NNW,340,0.0,1.0,91,0.00,,,0.00,weatherlink.com 1.10,2013-03-12 04:18:00,
2013-03-11 21:33:00,54.5,52.0,30.07,NNW,342,0.0,1.0,91,0.00,,,0.00,weatherlink.com 1.10,2013-03-12 04:33:00,
2013-03-11 21:48:00,53.9,51.0,30.07,NNW,342,0.0,0.0,91,0.00,,,0.00,weatherlink.com 1.10,2013-03-12 04:48:00,
2013-03-11 22:03:00,53.4,51.0,30.07,North,5,0.0,2.0,92,0.00,,,0.00,weatherlink.com 1.10,2013-03-12 05:03:00,
2013-03-11 22:18:00,53.2,51.0,30.07,North,5,0.0,0.0,92,0.00,,,0.00,weatherlink.com 1.10,2013-03-12 05:18:00,
2013-03-11 22:33:00,53.2,51.0,30.07,North,5,0.0,0.0,93,0.00,,,0.00,weatherlink.com 1.10,2013-03-12 05:33:00,
2013-03-11 22:48:00,53.2,51.0,30.07,North,5,0.0,0.0,93,0.00,,,0.00,weatherlink.com 1.10,2013-03-12 05:48:00,
2013-03-11 23:03:00,53.0,51.0,30.07,NE,36,0.0,2.0,92,0.00,,,0.00,weatherlink.com 1.10,2013-03-12 06:03:00,
2013-03-11 23:18:00,52.7,51.0,30.06,NE,36,0.0,0.0,93,0.00,,,0.00,weatherlink.com 1.10,2013-03-12 06:18:00,
2013-03-11 23:33:00,52.5,51.0,30.06,NE,36,0.0,0.0,93,0.00,,,0.00,weatherlink.com 1.10,2013-03-12 06:33:00,
2013-03-11 23:48:00,52.1,50.0,30.06,NE,36,0.0,0.0,92,0.00,,,0.00,weatherlink.com 1.10,2013-03-12 06:48:00,